TimeEET,TemperatureF,Dew PointF,Humidity,Sea Level PressureIn,VisibilityMPH,Wind Direction,Wind SpeedMPH,Gust SpeedMPH,PrecipitationIn,Events,Conditions,WindDirDegrees,DateUTC
12:20 AM,57.2,53.6,88,29.47,3.7,South,16.1,-,N/A,Rain-Thunderstorm,Light Thunderstorms and Rain,170,2013-03-25 22:20:00
12:50 AM,55.4,53.6,94,29.47,3.7,South,15.0,-,N/A,Rain-Thunderstorm,Light Thunderstorms and Rain,170,2013-03-25 22:50:00
1:20 AM,55.4,53.6,94,29.47,6.2,NW,6.9,-,N/A,Thunderstorm,Thunderstorm,310,2013-03-25 23:20:00
1:50 AM,53.6,51.8,94,29.47,6.2,SSW,4.6,-,N/A,,Mostly Cloudy,200,2013-03-25 23:50:00
2:00 AM,54,52,89,29.48,6,SSW,4.6,,,Thunderstorm,Light Thunderstorm,200,2013-03-26 00:00:00
2:20 AM,53.6,51.8,94,29.47,6.2,SSE,4.6,-,N/A,,Mostly Cloudy,160,2013-03-26 00:20:00
2:50 AM,53.6,51.8,94,29.47,6.2,Calm,Calm,-,N/A,,Mostly Cloudy,0,2013-03-26 00:50:00
3:20 AM,53.6,51.8,94,29.47,6.2,Calm,Calm,-,N/A,,Mostly Cloudy,0,2013-03-26 01:20:00
3:50 AM,53.6,51.8,94,29.47,6.2,Calm,Calm,-,N/A,Rain,Light Rain,0,2013-03-26 01:50:00
4:20 AM,53.6,51.8,94,29.47,6.2,Calm,Calm,-,N/A,Rain,Light Rain,0,2013-03-26 02:20:00
4:50 AM,55.4,51.8,88,29.47,6.2,Calm,Calm,-,N/A,,Mostly Cloudy,0,2013-03-26 02:50:00
5:20 AM,55.4,51.8,88,29.47,6.2,Calm,Calm,-,N/A,,Mostly Cloudy,0,2013-03-26 03:20:00
5:50 AM,55.4,53.6,94,29.47,6.2,Calm,Calm,-,N/A,,Mostly Cloudy,0,2013-03-26 03:50:00
6:20 AM,55.4,53.6,94,29.47,6.2,Calm,Calm,-,N/A,,Mostly Cloudy,0,2013-03-26 04:20:00
6:50 AM,53.6,51.8,94,29.50,6.2,Calm,Calm,-,N/A,,Mostly Cloudy,0,2013-03-26 04:50:00
7:20 AM,53.6,51.8,94,29.50,6.2,Calm,Calm,-,N/A,,Mostly Cloudy,0,2013-03-26 05:20:00
7:50 AM,55.4,51.8,88,29.53,6.2,WSW,3.5,-,N/A,,Mostly Cloudy,240,2013-03-26 05:50:00
8:00 AM,55,52,86,,6,WSW,3.5,,,,Partly Cloudy,240,2013-03-26 06:00:00
8:20 AM,55.4,51.8,88,29.53,6.2,WSW,3.5,-,N/A,,Mostly Cloudy,240,2013-03-26 06:20:00
8:50 AM,57.2,51.8,82,29.53,6.2,WNW,6.9,-,N/A,,Mostly Cloudy,290,2013-03-26 06:50:00
9:20 AM,57.2,51.8,82,29.53,6.2,NNW,9.2,-,N/A,Rain,Light Rain,340,2013-03-26 07:20:00
9:50 AM,59.0,53.6,82,29.56,6.2,NW,10.4,-,N/A,Rain,Light Rain,320,2013-03-26 07:50:00
10:20 AM,57.2,51.8,82,29.56,6.2,NNW,9.2,-,N/A,,Mostly Cloudy,340,2013-03-26 08:20:00
11:20 AM,60.8,51.8,72,29.56,6.2,WNW,9.2,-,N/A,,Mostly Cloudy,300,2013-03-26 09:20:00
11:50 AM,60.8,51.8,72,29.56,6.2,WNW,12.7,-,N/A,,Mostly Cloudy,290,2013-03-26 09:50:00
12:20 PM,60.8,51.8,72,29.56,6.2,WNW,12.7,-,N/A,,Mostly Cloudy,290,2013-03-26 10:20:00
1:20 PM,60.8,51.8,72,29.59,6.2,WSW,10.4,-,N/A,,Mostly Cloudy,250,2013-03-26 11:20:00
1:50 PM,62.6,50.0,63,29.59,6.2,West,10.4,-,N/A,,Mostly Cloudy,260,2013-03-26 11:50:00
2:00 PM,63,50,52,29.60,12,West,10.4,,,,Partly Cloudy,260,2013-03-26 12:00:00
2:20 PM,62.6,50.0,63,29.59,6.2,WSW,10.4,-,N/A,,Mostly Cloudy,240,2013-03-26 12:20:00
2:50 PM,62.6,50.0,63,29.59,6.2,West,10.4,-,N/A,,Mostly Cloudy,260,2013-03-26 12:50:00
3:20 PM,62.6,48.2,59,29.59,6.2,West,8.1,-,N/A,,Mostly Cloudy,280,2013-03-26 13:20:00
3:50 PM,60.8,51.8,72,29.59,6.2,NW,4.6,-,N/A,,Mostly Cloudy,320,2013-03-26 13:50:00
4:20 PM,59.0,51.8,77,29.59,6.2,WSW,8.1,-,N/A,Rain,Light Rain,240,2013-03-26 14:20:00
4:50 PM,59.0,53.6,82,29.59,6.2,WSW,4.6,-,N/A,,Mostly Cloudy,240,2013-03-26 14:50:00
5:20 PM,59.0,53.6,82,29.59,6.2,West,8.1,-,N/A,,Mostly Cloudy,260,2013-03-26 15:20:00
5:50 PM,59.0,53.6,82,29.59,6.2,WSW,6.9,-,N/A,,Mostly Cloudy,250,2013-03-26 15:50:00
6:20 PM,59.0,53.6,82,29.59,6.2,WSW,3.5,-,N/A,,Mostly Cloudy,240,2013-03-26 16:20:00
6:50 PM,59.0,51.8,77,29.59,6.2,Calm,Calm,-,N/A,,Mostly Cloudy,0,2013-03-26 16:50:00
7:20 PM,57.2,51.8,82,29.62,6.2,Calm,Calm,-,N/A,,Mostly Cloudy,0,2013-03-26 17:20:00
7:50 PM,57.2,53.6,88,29.62,6.2,Calm,Calm,-,N/A,Rain,Light Rain,0,2013-03-26 17:50:00
8:00 PM,58,54,80,29.63,6,Calm,Calm,,,Rain,Light Rain,,2013-03-26 18:00:00
8:20 PM,57.2,53.6,88,29.62,6.2,Calm,Calm,-,N/A,Rain,Light Rain,0,2013-03-26 18:20:00
8:50 PM,57.2,53.6,88,29.62,6.2,Calm,Calm,-,N/A,,Mostly Cloudy,0,2013-03-26 18:50:00
9:20 PM,57.2,53.6,88,29.62,6.2,Calm,Calm,-,N/A,,Mostly Cloudy,0,2013-03-26 19:20:00
9:50 PM,57.2,53.6,88,29.62,6.2,Calm,Calm,-,N/A,,Mostly Cloudy,0,2013-03-26 19:50:00
10:20 PM,57.2,53.6,88,29.62,6.2,Calm,Calm,-,N/A,,Mostly Cloudy,0,2013-03-26 20:20:00
10:50 PM,55.4,53.6,94,29.65,6.2,Calm,Calm,-,N/A,,Mostly Cloudy,0,2013-03-26 20:50:00
11:20 PM,55.4,53.6,94,29.65,6.2,Calm,Calm,-,N/A,,Mostly Cloudy,0,2013-03-26 21:20:00
11:50 PM,55.4,51.8,88,29.65,6.2,Calm,Calm,-,N/A,,Mostly Cloudy,0,2013-03-26 21:50:00